When you browse on this site, cookies collect data to enhance your experience and personalize the content and advertising you see.
Visit our Privacy Policy to learn more. By continuing to use the site, you agree to this use of cookies and data.
  • In Österreich
  • Länderverzeichnis
  • Für 7 Tage
  • Wassertemperatur
  • Satellitenkarten
  • Wetterkarte
  • News
  • Widgets
  • user-avatar
    Anmelden

    Stündliche Wetter Ganja

    Heute, 22 Mai, Mittwoch

    Zeit Temperatur Niederschläge Wind Luftdruck Luftfeuchtigkeit
    00:00 +17°C° 0 mm 2 m/S 729 mmHg 65%
    01:00 +16°C° 0 mm 1 m/S 729 mmHg 66%
    02:00 +16°C° 0 mm 1 m/S 728 mmHg 68%
    03:00 +15°C° 0 mm 1 m/S 728 mmHg 69%
    04:00 +16°C° 0 mm 1 m/S 728 mmHg 67%
    05:00 +16°C° 0 mm 1 m/S 728 mmHg 65%
    06:00 +18°C° 0 mm 1 m/S 728 mmHg 63%
    07:00 +18°C° 0 mm 2 m/S 728 mmHg 60%
    08:00 +19°C° 0 mm 2 m/S 728 mmHg 57%
    09:00 +20°C° 0 mm 3 m/S 727 mmHg 55%
    10:00 +21°C° 0 mm 3 m/S 727 mmHg 53%
    11:00 +22°C° 0 mm 3 m/S 726 mmHg 51%
    12:00 +24°C° 0 mm 3 m/S 726 mmHg 49%
    13:00 +24°C° 0 mm 3 m/S 726 mmHg 48%
    14:00 +25°C° 0 mm 2 m/S 725 mmHg 48%
    15:00 +25°C° 0 mm 2 m/S 725 mmHg 47%
    16:00 +25°C° 0.2 mm 2 m/S 725 mmHg 50%
    17:00 +24°C° 0.2 mm 1 m/S 725 mmHg 53%
    18:00 +22°C° 0.2 mm 0 m/S 725 mmHg 55%
    19:00 +21°C° 0.3 mm 0 m/S 725 mmHg 58%
    20:00 +20°C° 0.3 mm 0 m/S 725 mmHg 60%
    21:00 +22°C° 0.3 mm 1 m/S 726 mmHg 63%
    22:00 +21°C° 0 mm 1 m/S 725 mmHg 62%
    23:00 +20°C° 0 mm 1 m/S 725 mmHg 61%

    Morgen, 23 Mai, Donnerstag

    Zeit Temperatur Niederschläge Wind Luftdruck Luftfeuchtigkeit
    00:00 +19°C° 0 mm 2 m/S 725 mmHg 61%
    01:00 +18°C° 0 mm 2 m/S 725 mmHg 61%
    02:00 +18°C° 0 mm 2 m/S 725 mmHg 62%
    03:00 +18°C° 0 mm 2 m/S 725 mmHg 62%
    04:00 +18°C° 0 mm 2 m/S 725 mmHg 63%
    05:00 +18°C° 0 mm 2 m/S 724 mmHg 64%
    06:00 +19°C° 0 mm 2 m/S 724 mmHg 64%
    07:00 +20°C° 0 mm 2 m/S 724 mmHg 62%
    08:00 +23°C° 0 mm 2 m/S 724 mmHg 59%
    09:00 +24°C° 0 mm 2 m/S 724 mmHg 56%
    10:00 +25°C° 0.2 mm 2 m/S 724 mmHg 55%
    11:00 +25°C° 0.2 mm 2 m/S 723 mmHg 53%
    12:00 +26°C° 0.2 mm 2 m/S 723 mmHg 52%
    13:00 +26°C° 0.2 mm 1 m/S 723 mmHg 50%
    14:00 +26°C° 0.2 mm 1 m/S 722 mmHg 49%
    15:00 +27°C° 0.2 mm 1 m/S 722 mmHg 48%
    16:00 +26°C° 0.1 mm 1 m/S 722 mmHg 49%
    17:00 +26°C° 0.1 mm 1 m/S 722 mmHg 51%
    18:00 +24°C° 0.1 mm 0 m/S 722 mmHg 52%
    19:00 +25°C° 0.1 mm 1 m/S 723 mmHg 53%
    20:00 +23°C° 0.1 mm 1 m/S 723 mmHg 53%
    21:00 +22°C° 0.1 mm 1 m/S 723 mmHg 53%
    22:00 +21°C° 0 mm 1 m/S 724 mmHg 53%
    23:00 +21°C° 0 mm 1 m/S 724 mmHg 53%

    übermorgen, 24 Mai, Freitag

    Zeit Temperatur Niederschläge Wind Luftdruck Luftfeuchtigkeit
    00:00 +20°C° 0 mm 1 m/S 724 mmHg 53%
    01:00 +20°C° 0 mm 1 m/S 724 mmHg 55%
    02:00 +19°C° 0 mm 1 m/S 724 mmHg 56%
    03:00 +19°C° 0 mm 1 m/S 724 mmHg 57%
    04:00 +19°C° 0 mm 1 m/S 724 mmHg 58%
    05:00 +20°C° 0 mm 1 m/S 724 mmHg 59%
    06:00 +20°C° 0 mm 1 m/S 724 mmHg 59%
    07:00 +21°C° 0 mm 2 m/S 724 mmHg 57%
    08:00 +23°C° 0 mm 2 m/S 724 mmHg 54%
    09:00 +24°C° 0 mm 2 m/S 725 mmHg 52%
    10:00 +25°C° 0 mm 2 m/S 724 mmHg 50%
    11:00 +26°C° 0 mm 2 m/S 724 mmHg 48%
    12:00 +27°C° 0 mm 2 m/S 724 mmHg 47%
    13:00 +27°C° 0 mm 2 m/S 724 mmHg 46%
    14:00 +28°C° 0 mm 2 m/S 724 mmHg 45%
    15:00 +29°C° 0 mm 3 m/S 723 mmHg 43%
    16:00 +28°C° 0 mm 3 m/S 723 mmHg 46%
    17:00 +27°C° 0 mm 3 m/S 724 mmHg 49%
    18:00 +27°C° 0 mm 3 m/S 724 mmHg 52%
    19:00 +26°C° 0.7 mm 3 m/S 724 mmHg 55%
    20:00 +25°C° 0.7 mm 2 m/S 725 mmHg 59%
    21:00 +24°C° 0.7 mm 2 m/S 726 mmHg 62%
    22:00 +22°C° 0.3 mm 3 m/S 726 mmHg 67%
    23:00 +21°C° 0.3 mm 3 m/S 726 mmHg 71%

    25 Mai, Samstag

    Zeit Temperatur Niederschläge Wind Luftdruck Luftfeuchtigkeit
    00:00 +20°C° 0.3 mm 3 m/S 726 mmHg 75%
    01:00 +20°C° 0 mm 3 m/S 726 mmHg 75%
    02:00 +20°C° 0 mm 2 m/S 726 mmHg 75%
    03:00 +20°C° 0 mm 1 m/S 726 mmHg 75%
    04:00 +20°C° 0 mm 1 m/S 726 mmHg 73%
    05:00 +21°C° 0 mm 1 m/S 726 mmHg 71%
    06:00 +19°C° 0 mm 0 m/S 726 mmHg 70%
    07:00 +22°C° 0 mm 1 m/S 726 mmHg 65%
    08:00 +24°C° 0 mm 1 m/S 725 mmHg 61%
    09:00 +25°C° 0 mm 2 m/S 725 mmHg 57%
    10:00 +26°C° 0 mm 2 m/S 725 mmHg 53%
    11:00 +27°C° 0 mm 2 m/S 724 mmHg 49%
    12:00 +29°C° 0 mm 2 m/S 724 mmHg 45%
    13:00 +29°C° 0 mm 2 m/S 723 mmHg 44%
    14:00 +30°C° 0 mm 3 m/S 723 mmHg 42%
    15:00 +31°C° 0 mm 3 m/S 722 mmHg 40%
    16:00 +30°C° 0.1 mm 2 m/S 722 mmHg 43%
    17:00 +30°C° 0.1 mm 2 m/S 722 mmHg 45%
    18:00 +29°C° 0.1 mm 2 m/S 722 mmHg 48%
    19:00 +28°C° 0 mm 2 m/S 723 mmHg 51%
    20:00 +26°C° 0 mm 1 m/S 723 mmHg 54%
    21:00 +25°C° 0 mm 1 m/S 723 mmHg 57%
    22:00 +24°C° 0 mm 2 m/S 723 mmHg 57%
    23:00 +24°C° 0 mm 2 m/S 724 mmHg 57%

    26 Mai, Sonntag

    Zeit Temperatur Niederschläge Wind Luftdruck Luftfeuchtigkeit
    00:00 +22°C° 0 mm 3 m/S 724 mmHg 56%
    01:00 +21°C° 0 mm 3 m/S 724 mmHg 58%
    02:00 +21°C° 0 mm 3 m/S 723 mmHg 60%
    03:00 +21°C° 0 mm 3 m/S 723 mmHg 61%
    04:00 +21°C° 0 mm 3 m/S 723 mmHg 61%
    05:00 +21°C° 0 mm 3 m/S 723 mmHg 61%
    06:00 +22°C° 0 mm 3 m/S 723 mmHg 61%
    07:00 +23°C° 0 mm 4 m/S 723 mmHg 57%
    08:00 +26°C° 0 mm 4 m/S 723 mmHg 53%
    09:00 +27°C° 0 mm 4 m/S 723 mmHg 49%
    10:00 +28°C° 0.1 mm 3 m/S 723 mmHg 45%
    11:00 +29°C° 0.1 mm 3 m/S 723 mmHg 42%
    12:00 +30°C° 0.1 mm 3 m/S 723 mmHg 39%
    13:00 +30°C° 0.7 mm 2 m/S 722 mmHg 39%
    14:00 +30°C° 0.7 mm 2 m/S 722 mmHg 40%
    15:00 +30°C° 0.7 mm 2 m/S 722 mmHg 41%
    16:00 +29°C° 0.4 mm 2 m/S 722 mmHg 44%
    17:00 +29°C° 0.4 mm 2 m/S 722 mmHg 48%
    18:00 +28°C° 0.4 mm 2 m/S 723 mmHg 52%
    19:00 +27°C° 0.2 mm 2 m/S 723 mmHg 55%
    20:00 +25°C° 0.2 mm 1 m/S 724 mmHg 59%
    21:00 +24°C° 0.2 mm 1 m/S 724 mmHg 63%
    22:00 +24°C° 0 mm 1 m/S 725 mmHg 64%
    23:00 +23°C° 0 mm 2 m/S 725 mmHg 65%

    27 Mai, Montag

    Zeit Temperatur Niederschläge Wind Luftdruck Luftfeuchtigkeit
    00:00 +23°C° 0 mm 2 m/S 725 mmHg 66%
    01:00 +21°C° 0 mm 2 m/S 725 mmHg 66%
    02:00 +21°C° 0 mm 2 m/S 725 mmHg 66%
    03:00 +20°C° 0 mm 2 m/S 725 mmHg 66%
    04:00 +21°C° 0 mm 3 m/S 725 mmHg 66%
    05:00 +21°C° 0 mm 3 m/S 726 mmHg 66%
    06:00 +22°C° 0 mm 3 m/S 726 mmHg 65%
    07:00 +24°C° 0 mm 3 m/S 726 mmHg 61%
    08:00 +25°C° 0 mm 3 m/S 726 mmHg 57%
    09:00 +26°C° 0 mm 4 m/S 726 mmHg 53%
    10:00 +27°C° 0.2 mm 3 m/S 726 mmHg 50%
    11:00 +27°C° 0.2 mm 3 m/S 726 mmHg 48%
    12:00 +28°C° 0.2 mm 2 m/S 725 mmHg 45%
    13:00 +28°C° 0.1 mm 2 m/S 725 mmHg 44%
    14:00 +28°C° 0.1 mm 1 m/S 725 mmHg 43%
    15:00 +28°C° 0.1 mm 1 m/S 725 mmHg 42%
    16:00 +28°C° 0.1 mm 1 m/S 726 mmHg 44%
    17:00 +27°C° 0.1 mm 1 m/S 726 mmHg 46%
    18:00 +27°C° 0.1 mm 2 m/S 726 mmHg 48%
    19:00 +26°C° 0.1 mm 2 m/S 727 mmHg 50%
    20:00 +25°C° 0.1 mm 2 m/S 727 mmHg 51%
    21:00 +23°C° 0.1 mm 2 m/S 728 mmHg 53%
    22:00 +23°C° 0 mm 1 m/S 728 mmHg 56%
    23:00 +22°C° 0 mm 1 m/S 728 mmHg 59%
    Mehr zeigen